Location: ČR
(50.0000°N, 15.0000°E)
Time: 14:54:48
(UTC+00:00)

O/OREOS (USA 219) - Pass Details

Date: 10 December 2021
Orbit: 621 x 646 km, 72.0° (Epoch: 22 May)

Event Time Altitude Azimuth Distance (km) Brightness Sun altitude
Rises 17:39:59 0° 336° (NNW) 2,956 ? -24.8°
Reaches altitude 10° 17:42:22 10° 343° (NNW) 2,046 ? -25.2°
Enters shadow 17:43:53 20° 353° (N) 1,508 ? -25.4°
